Taurus 1
1 44530U 19059C   25010.78565052  .00010460  00000-0  20941-2 0  9995
2 44530  98.5889 143.6617 0010162 138.8674 221.3294 14.61959504282021
Duchifat 3
1 44854U 19089C   25010.86255238  .00033837  00000-0  10996-2 0  9990
2 44854  36.9476 215.8797 0010524  23.3215 336.8012 15.30985391279879
TO-108
1 44881U 19093C   25010.53443143  .00001744  00000-0  21054-3 0  9993
2 44881  97.8099  89.2736 0014196   9.5942 350.5542 14.84975881273803
FloripaSat 1
1 44885U 19093G   25010.63132735  .00008394  00000-0  76376-3 0  9995
2 44885  97.8269  98.2051 0010988 351.1892   8.9134 14.95402860274313
RS-44
1 44909U 19096E   25010.36888521  .00000009  00000-0 -73933-6 0  9991
2 44909  82.5238 327.0991 0216416 286.9451  70.8030 12.79737793235476
UPMSat 2
1 46276U 20061E   25010.56342736  .00039669  00000-0  72114-3 0  9999
2 46276  97.2692  82.0480 0001965  94.8778 265.2698 15.49434239242109
AmicalSat
1 46287U 20061R   25010.18511673  .05182153  23987-5  13088-2 0  9997
2 46287  97.2883  89.1019 0007304 289.0207  71.0296 16.28935214241762
SALSAT
1 46495U 20068K   25010.48943358  .00009445  00000-0  45451-3 0  9990
2 46495  97.8427 342.1650 0011387 330.7464  29.3130 15.18957018235716
CubeSX-Sirius-HSE
1 47951U 21022V   25010.57407354  .00064701  00000-0  12730-2 0  9999
2 47951  97.4387 276.7737 0011955 107.0565 253.1996 15.46963267210377
CubeSX-HSE
1 47952U 21022W   25010.69209721  .00062007  00000-0  12073-2 0  9998
2 47952  97.4384 277.0550 0011896 106.0919 254.1641 15.47279184210409
KSU-Cubesat
1 47954U 21022Y   25010.47512242  .00127641  00000-0  15677-2 0  9990
2 47954  97.4383 280.0426 0011062  96.6803 263.5713 15.59795576210299
GRBAlpha
1 47959U 21022AD  25010.84534830  .00060210  00000-0  11748-2 0  9996
2 47959  97.4385 277.3791 0011885 105.6651 254.5911 15.47225735209251
Orbicraft-Zorkiy
1 47960U 21022AE  25010.78831040  .00090782  00000-0  13451-2 0  9994
2 47960  97.4386 279.9058 0011143  99.4336 260.8178 15.54876769210079
TUBIN
1 48900U 21059X   25010.87223091  .00034496  00000-0  73487-3 0  9996
2 48900  97.6619 169.9296 0005469  66.2285 293.9536 15.44845904196812
LEDSAT
1 49069U 21073D   25010.48540067  .00038168  00000-0  92513-3 0  9992
2 49069  97.4120  88.0230 0013122 265.1638  94.8110 15.40885648188182
CUTE
1 49263U 21088D   25010.57063984  .00045439  00000-0  12233-2 0  9991
2 49263  97.4719  83.2004 0010660  70.5628 289.6768 15.37659581181298
TeikyoSat 4
1 49396U 21102B   25010.50142649  .00003010  00000-0  20766-3 0  9994
2 49396  97.4339  54.2691 0011067 291.4017  68.6030 15.06483315173947
Z-Sat
1 49399U 21102E   25010.53024001  .00006851  00000-0  39906-3 0  9993
2 49399  97.4047  56.5670 0017311 263.6486  96.2774 15.12195936174283
KOSEN 1
1 49402U 21102H   25010.58095397  .00009248  00000-0  47118-3 0  9996
2 49402  97.3964  59.0171 0015485 240.4883 119.4807 15.16895377174525
HO-113
1 50466U 21131B   25010.53348966  .00001089  00000-0  35666-3 0  9998
2 50466  98.5183 100.6442 0003610 213.7462 146.3497 14.40439149159849
IRIS-A
1 51044U 22002BN  25010.14044564  .00059451  00000-0  97404-3 0  9997
2 51044  97.3543  84.1618 0004376  17.4085 342.7317 15.52274725166279
Foresail-1
1 52766U 22057AL  25010.35918903  .00050857  00000-0  83472-3 0  9990
2 52766  97.5966 149.6942 0005562 107.3921 252.7939 15.52256816146342
SNUGLITE 2
1 52899U 22065F   25010.35252734  .00002174  00000-0  43891-3 0  9999
2 52899  98.1437 154.0830 0006895 218.1617 141.9097 14.62411919134526
IO-117
1 53106U 22080B   25009.19471341 -.00000003  00000-0  00000+0 0  9996
2 53106  70.1418 120.9515 0008220  60.3032 299.8446  6.42557483 58501
FO-118
1 54684U 22167C   25010.81704954  .00158668  00000-0  15218-2 0  9994
2 54684  97.6111 171.0523 0002128 117.0855 243.0622 15.66125585116329
SO-120
1 56992U 23084BU  25010.81816304  .00261830  00000-0  19299-2 0  9999
2 56992  97.5306 143.3804 0007558 325.9965  34.0812 15.72224147 88201
UmKA 1 (RS40S)
1 57172U 23091G   25010.57782151  .00008568  00000-0  49565-3 0  9990
2 57172  97.5838  66.8506 0016365 128.5841 231.6858 15.12392292 84781
CubeBel-2 (EU11S)
1 57175U 23091K   25010.52789280  .00012034  00000-0  64896-3 0  9995
2 57175  97.5840  67.2123 0014310 137.9406 222.2927 15.14835062 84801
VERONIKA
1 58261U 23174F   25010.46165387  .00047519  00000-0  11853-2 0  9993
2 58261  97.4367  91.4708 0008016 226.6554 133.4025 15.40019927 65382
KAFASAT
1 58317U 23174BP  25010.64537422  .00110173  00000-0  17224-2 0  9993
2 58317  97.4268  94.1063 0005918 202.7412 157.3580 15.53375051 65595
ENSO
1 58470U 23185J   25010.81659066  .00037147  00000-0  97426-3 0  9995
2 58470  97.3987  83.0176 0008461 260.9217  99.1071 15.38534678 61880
EIRSAT-1
1 58472U 23185L   25010.91523044  .00047196  00000-0  11168-2 0  9997
2 58472  97.3981  83.6093 0007865 260.2580  99.7778 15.41622265 61933
SONATE-2
1 59112U 24043Q   25010.60931757  .00019625  00000-0  71535-3 0  9994
2 59112  97.4953 139.8123 0011735 288.7869  71.2097 15.28153521 47379
MO-122
1 60209U 24125G   25010.38912759  .00019270  00000-0  69526-3 0  9993
2 60209  97.2966 224.3013 0021623 318.3733  41.5860 15.28329905 28957
GRBBeta
1 60237U 24128C   25010.10405940  .00005904  00000-0  47817-3 0  9994
2 60237  61.9922 243.3375 0034832  21.9138 338.3432 15.00332755 27602
Curium One
1 60242U 24128H   25010.38346031  .00008588  00000-0  67081-3 0  9991
2 60242  61.9828 242.2629 0034753  15.5605 344.6545 15.01293597 27654
ROBUSTA-3A
1 60243U 24128J   25010.34684077  .00007663  00000-0  60556-3 0  9996
2 60243  61.9893 242.7790 0032931  13.2435 346.9512 15.01009909 27643
CatSat
1 60246U 24125J   25010.16334899  .00013825  00000-0  52769-3 0  9994
2 60246  97.2759 224.6553 0045189 268.9772  90.6289 15.25793853 27016
AO-123
1 61781U 24199AY  25010.82173061  .00011754  00000-0  47484-3 0  9992
2 61781  97.3779 240.5736 0017869  13.2545 346.9159 15.24764491 54037
POEM 4 (BGS ARPIT)
1 62461U 24253C   25010.65935064  .00097504  00000-0  68274-3 0  9996
2 62461  55.2198 202.6184 0003911 290.6131  69.4496 15.73525824  1719
